Home > Weather > Minas > Past weeks

Flag for Uruguay Past Weather in Minas, Uruguay — Yesterday and Last 2 Weeks

Now
54 °F

Mostly cloudy.


Feels Like: 50 °F
Forecast: 51 / 60 °F
Wind: 10 mph from Southeast

Location: Capitan Corbeta

Current Time: Aug 29, 2016 at 10:32:57 PM

Latest Report: Aug 29, 2016 at 10:00 PM


Visibility: 5 mi

Pressure: 30.15 "Hg

Humidity: 88%

Dew Point: 50 °F

Location of MinasLocation

Past Weather in Minas — Graph

°F

Minas Temperature Yesterday

Maximum temperature yesterday: 54 °F (at 4:00 AM)
Minimum temperature yesterday: 50 °F (at 9:00 AM)
Average temperature yesterday: 52 °F

High & Low Weather Summary for the Past Weeks

 TemperatureHumidityPressure
High77 °F (Aug 26, 1:00 PM)100% (Aug 25, 8:00 AM)30.42 "Hg (Aug 25, 8:00 AM)
Low39 °F (Aug 21, 9:00 PM)30% (Aug 18, 2:00 PM)29.65 "Hg (Aug 15, 3:00 PM)
Average54 °F74%30.03 "Hg
* Reported Aug 14 9:00 PM — Aug 29 9:00 PM, Minas, Weather by CustomWeather, © 2016

Note: Actual official high and low records may vary slightly from our data, if they occured in-between our weather recording intervals... More about our weather records

Advertising

Minas Weather History for the Previous 24 Hours

Scroll right to see more
 ConditionsComfort  
Time TempWeatherWind HumidityBarometerVisibility
9:00 PM
Mon, Aug 29
54 °FPassing clouds.12 mph88%30.18 "Hg5 mi
7:00 PM54 °FPassing clouds.14 mph88%30.18 "Hg5 mi
6:00 PM55 °FPassing clouds.12 mph82%30.18 "Hg6 mi
5:00 PM57 °FMore clouds than sun.12 mph82%30.18 "Hg6 mi
4:00 PM55 °FOvercast.12 mph88%30.18 "Hg6 mi
3:00 PM57 °FOvercast.17 mph82%30.21 "Hg5 mi
2:00 PM57 °FOvercast.14 mph82%30.21 "Hg5 mi
1:00 PM57 °FLight rain. Overcast.21 mph82%30.24 "Hg5 mi
12:00 PM57 °FMostly cloudy.16 mph82%30.24 "Hg5 mi
11:00 AM57 °FBroken clouds.21 mph82%30.24 "Hg5 mi
10:00 AM55 °FScattered clouds.15 mph88%30.24 "Hg5 mi
9:00 AM55 °FPartly sunny.13 mph82%30.21 "Hg5 mi
8:00 AM54 °FPartly sunny.13 mph88%30.24 "Hg5 mi
7:00 AM54 °FBroken clouds.12 mph88%30.21 "Hg5 mi
6:00 AM52 °FPassing clouds.12 mph94%30.21 "HgN/A
5:00 AM52 °FClear.12 mph94%30.18 "Hg10 mi
4:00 AM52 °FClear.14 mph94%30.21 "Hg10 mi
3:00 AM52 °FClear.12 mph94%30.21 "Hg10 mi
2:00 AM52 °FClear.10 mph88%30.21 "Hg10 mi
1:00 AM50 °FClear.8 mph94%30.21 "Hg10 mi
12:00 AM52 °FClear.8 mph94%30.21 "Hg5 mi
11:00 PM
Sun, Aug 28
52 °FClear.10 mph94%30.18 "Hg10 mi
10:00 PM52 °FPassing clouds.10 mph94%30.18 "Hg5 mi
Weather by CustomWeather, © 2016

See weather overviewHow to use our weather pages